Weather in Sashkino

Russia / Kaluga Oblast     54°34′19″N   36°50′54″E
temp.,
°C
wind,
m/s
gust,
m/s
humid.,
%
clouds,
%
prec.,
mm/h
press.,
hPa
HPBL,
m
17 may, mon
mon1700:00+14ese2281100 0.0 101319
03:00+13e33845 0.0 101338
06:00+13e3108988 0.0 1013211
09:00+19e6117932 0.1 1012472
12:00+23ese796811 0.0 1011900
15:00+25se61064100 0.0 10091307
18:00+23se612718 0.0 1009663
21:00+18ese51580100 0.0 1009375
18 may, tue
tue1800:00+17se515812 0.0 1008375
03:00+15se4118633 0.0 1008234
06:00+15ese4108734 0.0 1008230
09:00+19se587461 0.0 1008398
12:00+23se7116293 0.0 1008879
15:00+24se61261100 0.0 10071390
18:00+22ese5117198 0.0 1006582
21:00+19se51380100 0.0 1006392
19 may, wed
wed1900:00+17se4108798 0.0 1007239
03:00+15ese3693100 0.0 100699
06:00+15se4990100 0.0 1007308
09:00+19sse4775100 0.0 1008517
12:00+19se4775100 0.0 1008814
15:00+19sse477629 0.5 1008657
18:00+20sse477690 0.1 1008862
21:00+15e119091 1.5 100811
20 may, thu
thu2000:00+15e3395100 1.8 100758
03:00+15se1195100 2.4 100523
06:00+15sse239688 0.6 1005147
09:00+14sse2697100 2.3 1006363
12:00+16sw5589100 1.8 1005703
15:00+14ssw4689100 7.8 1008521
18:00+16s61188100 0.9 1009788
21:00+13ssw510934 1.9 1010408
21 may, fri
fri2100:00+11sw51296100 0.0 1012441
03:00+10sw61296100 0.0 1014558
06:00+11sw3992100 0.0 1015374
09:00+11sw3792100 0.0 1017335
12:00+15wsw357899 0.1 1018828
15:00+17sw357798 0.9 1018877
18:00+14wsw3794100 1.2 1018307
21:00+13ese2292100 1.6 101840